Location: Wanzleben
(52.0609°N, 11.4408°E)
Time: 18:20:56
(UTC+00:00)

DMSP B5D2-2 - Pass Details

Date: 18 September 2020
Orbit: 790 x 805 km, 98.3° (Epoch: 22 October)

Event Time Altitude Azimuth Distance (km) Brightness Sun altitude
Rises 18:37:54 0° 19° (NNE) 3,334 7.3 -12.4°
Reaches altitude 10° 18:40:22 10° 26° (NNE) 2,399 6.5 -12.7°
Maximum altitude 18:45:25 43° 98° (E) 1,118 4.4 -13.5°
Drops below altitude 10° 18:50:26 10° 169° (S) 2,381 6.2 -14.2°
Sets 18:52:52 0° 176° (S) 3,306 7.0 -14.5°
